Location: Gilevgi
(36.8751°N, 30.0581°E)
Time: 04:50:09
(UTC+00:00)

Okean 1-7 Rocket - Pass Details

Date: 14 March 2026
Orbit: 609 x 643 km, 82.5° (Epoch: 15 April)

Event Time Altitude Azimuth Distance (km) Brightness Sun altitude
Rises 17:24:18 0° 218° (SW) 2,937 7.4 -16.4°
Reaches altitude 10° 17:26:59 10° 234° (SW) 2,034 6.8 -16.9°
Maximum altitude 17:30:28 22° 285° (WNW) 1,415 6.3 -17.6°
Drops below altitude 10° 17:33:59 10° 336° (NNW) 2,043 6.7 -18.3°
Sets 17:36:42 0° 352° (N) 2,955 7.3 -18.8°
